Vorticity
9 6 5 4 3 2 2 2 2 2 1 2 3 3 4 5 3 4 7 4 1 2 2 2 1 2 3 3 4 4 9 12 12 16 10 5 13 11 7 7 6 9 12 13 11 6 1 1 6 2 -0 2 2 3 5 7 5 7 3 3 13 5 1 10 11 7 4 6 4 5 7 6 7 5 6 5 5 5 4 4 4 7 4 4 6 3 3 1
12 10 7 5 4 3 2 2 2 2 1 1 2 3 3 4 4 3 6 6 2 1 2 3 2 1 1 3 3 3 8 11 10 14 13 8 13 13 9 6 4 10 10 10 12 7 1 2 2 -9 -3 9 -2 -6 -2 -4 -1 6 3 2 7 4 12 12 8 12 4 5 8 7 7 4 4 3 5 5 6 7 3 5 5 7 6 4 5 4 4 4
11 13 11 7 6 4 3 2 2 2 1 1 1 2 2 3 4 3 4 6 5 2 1 2 3 1 1 2 1 3 6 9 10 14 17 11 13 15 12 7 4 8 7 8 9 6 3 -2 0 -6 2 8 -16 -14 -1 -10 -19 -15 3 14 -0 -11 7 9 4 12 5 5 9 8 8 6 6 3 6 6 4 8 6 5 2 1 3 3 4 4 5 5
7 10 13 12 8 5 4 3 2 2 2 1 1 1 2 2 3 4 2 4 6 4 3 2 3 2 0 1 1 1 4 9 8 13 17 11 12 14 14 11 6 9 6 8 5 10 12 -8 -2 7 5 5 -8 4 14 6 3 2 11 14 9 5 10 13 10 13 7 6 5 4 7 7 10 7 10 10 2 6 8 5 3 2 2 3 5 3 4 5
6 7 10 13 13 9 6 4 3 2 2 2 0 1 2 1 2 4 3 2 4 5 5 3 1 3 1 1 2 -0 4 8 4 10 16 12 13 12 17 14 7 9 5 9 7 12 15 -6 2 11 8 8 -4 7 10 7 9 4 5 -8 -3 13 7 7 7 8 7 5 6 7 6 3 8 9 10 12 3 4 9 8 6 5 4 2 4 4 4 5
6 6 7 9 12 13 10 6 4 2 2 2 1 1 1 2 0 2 4 3 2 4 6 5 2 3 2 1 1 0 2 3 2 8 14 13 14 14 18 15 9 9 3 9 10 8 7 -2 3 -0 9 15 -3 3 3 7 10 -0 12 3 -1 12 2 3 5 3 6 6 7 6 6 4 6 9 9 10 7 8 11 10 6 6 7 3 4 4 3 4
8 6 6 7 9 12 14 11 7 3 2 2 2 2 1 2 1 -0 3 4 3 2 4 6 4 2 2 1 1 2 1 2 3 5 14 13 12 15 17 16 10 8 6 6 7 7 2 4 3 -17 -6 12 4 6 -6 -0 11 -0 15 11 4 11 1 6 11 9 9 4 4 3 7 9 6 10 14 12 8 10 11 9 7 7 7 4 4 4 3 3
12 8 6 6 8 9 11 14 12 7 3 2 2 3 2 2 2 0 0 2 4 2 3 5 6 4 2 2 2 2 1 2 1 2 13 13 12 15 14 16 10 7 8 4 6 5 1 11 6 -19 -9 10 2 1 -1 -1 1 2 15 9 5 12 9 14 13 9 10 4 6 9 10 10 7 10 15 15 10 7 8 10 9 9 10 4 3 6 4 4
17 13 9 6 7 8 9 11 14 13 8 4 2 3 3 2 3 2 -0 1 3 3 2 3 7 7 3 2 3 3 3 2 -1 0 10 14 13 12 13 17 9 7 8 2 4 2 8 13 1 -4 -1 3 3 6 21 11 -8 2 11 8 10 10 12 15 6 7 12 6 8 14 13 11 9 9 12 14 13 8 6 10 8 7 9 4 4 9 6 5
24 19 14 10 7 6 9 9 10 14 13 9 4 3 2 3 4 3 2 0 1 2 3 2 4 8 6 2 2 4 4 3 2 -1 6 13 13 12 15 16 9 9 6 2 6 1 9 4 -2 12 -8 -4 25 10 8 8 -2 8 6 5 11 9 11 7 0 7 8 1 7 19 18 9 5 8 11 11 13 11 8 6 8 8 4 2 6 10 9 6
27 26 20 15 11 6 7 8 10 10 13 14 9 6 3 3 4 4 4 1 1 1 2 3 2 7 9 3 2 5 2 2 4 -0 3 11 13 13 12 14 12 10 6 5 8 -3 -1 1 -1 2 -18 6 36 -5 -12 13 14 15 8 5 8 13 11 -5 -3 7 5 3 6 16 19 10 2 6 12 11 10 11 9 4 6 10 3 2 7 8 10 10
17 27 26 21 15 11 7 6 10 9 11 14 13 11 6 4 3 4 6 4 3 1 0 3 2 5 9 5 3 5 1 0 4 1 1 7 12 13 11 16 12 9 10 4 5 -4 -7 11 7 -4 -1 15 17 -3 -1 10 12 13 7 5 7 14 8 -8 2 5 1 5 3 9 16 10 3 2 10 12 7 7 8 4 6 12 7 5 7 7 10 12
7 16 26 28 20 15 12 7 7 8 10 12 13 14 11 7 4 4 7 6 5 2 1 2 3 4 6 8 7 3 1 0 3 1 1 5 11 13 10 16 12 12 9 -7 6 8 -3 10 5 0 12 3 -1 10 10 4 13 15 4 3 3 6 2 -3 6 4 3 7 3 7 8 5 8 5 4 6 5 7 6 2 5 9 8 7 6 7 7 8
5 7 16 27 27 20 15 11 8 6 8 11 12 14 15 12 7 5 6 8 7 3 2 1 3 4 3 10 10 3 -1 -0 3 3 1 2 9 13 9 12 14 16 8 -6 9 12 2 5 2 14 19 -5 -10 0 7 11 15 16 7 3 4 5 6 5 2 0 4 3 1 8 5 -1 8 14 7 3 1 3 6 3 4 6 5 7 8 7 6 6
6 6 8 17 28 27 19 14 11 8 6 8 11 13 15 15 10 7 6 9 9 4 4 2 3 4 2 9 11 2 -2 1 3 2 2 1 7 12 9 12 14 15 9 2 7 0 1 7 6 24 14 -9 -1 7 18 13 -2 9 8 -1 5 3 -1 -2 0 3 2 1 4 6 3 -5 -1 13 12 7 1 -2 9 11 7 10 5 5 10 10 7 6
6 6 7 9 19 30 27 18 13 11 7 5 9 12 15 16 13 9 6 10 11 6 5 3 2 4 3 8 11 6 2 1 1 2 2 0 6 8 8 13 11 12 9 3 9 4 4 10 10 15 -4 -8 13 15 12 -0 -6 9 4 1 8 1 -3 -4 2 10 1 0 12 7 4 8 5 11 12 12 9 -1 9 14 6 8 6 4 9 10 8 7
7 6 7 7 11 23 30 25 16 12 10 6 6 10 14 16 15 12 7 9 12 8 6 4 3 4 3 4 8 8 4 -0 0 4 3 -0 4 5 8 14 7 11 14 5 8 9 5 5 8 9 -1 3 14 6 -2 -1 7 6 1 11 7 -2 4 3 0 4 0 1 15 9 2 8 3 4 8 11 15 6 5 10 6 7 5 4 6 5 7 8
8 7 7 7 8 15 27 31 22 14 12 9 6 7 12 15 16 15 9 8 12 11 7 4 4 3 1 1 5 8 4 2 3 3 3 2 3 4 7 12 8 10 13 7 6 8 7 3 7 12 9 7 6 6 3 2 4 -3 3 10 4 10 7 2 4 -3 -0 1 -1 -0 -2 2 -0 2 9 8 13 9 3 6 8 10 5 3 4 1 4 10
8 8 7 7 8 10 20 30 28 19 12 11 8 6 11 13 15 17 11 9 14 13 7 4 4 2 3 5 5 6 5 6 6 2 2 3 4 5 5 7 10 9 6 8 9 7 3 -2 3 14 17 10 1 6 6 -1 -5 -1 12 -2 -9 19 0 -13 9 4 7 10 1 8 6 2 2 1 6 8 11 10 6 6 6 10 8 4 5 2 3 7
8 8 8 7 7 8 14 25 30 24 15 11 10 7 10 12 13 16 14 10 12 11 8 5 5 4 5 7 5 5 7 7 6 1 -1 3 5 3 4 7 10 9 7 11 12 5 3 -2 -2 12 20 10 2 12 11 -1 -8 0 22 4 -10 16 -3 -16 7 0 6 15 7 11 3 -1 6 3 3 4 7 8 7 8 4 5 8 7 6 3 3 4
7 8 8 8 7 7 10 20 29 28 18 12 10 8 9 12 13 15 16 13 10 11 11 7 5 3 2 4 4 5 8 7 5 2 -0 2 4 3 3 5 7 10 11 14 13 3 4 4 1 13 19 11 8 9 5 3 -4 -8 6 6 4 11 2 5 4 -19 -0 23 12 8 3 -0 4 2 2 3 5 7 7 9 6 2 5 8 7 4 5 2
8 8 8 7 7 7 7 14 25 29 22 13 11 9 8 11 13 13 15 15 12 10 11 8 6 4 3 5 4 5 10 10 5 2 1 1 3 4 3 3 8 14 10 9 10 4 6 10 6 12 14 11 10 -3 -5 6 3 -7 -6 8 17 5 2 18 5 -15 8 24 9 4 5 3 5 5 2 1 5 6 5 7 6 3 4 5 6 6 5 2
8 7 8 8 7 8 6 8 21 30 25 15 12 10 8 11 14 13 12 16 15 10 9 8 7 5 6 5 2 7 11 8 5 1 0 2 3 4 3 4 9 11 7 5 8 7 11 14 8 11 8 1 6 5 5 3 2 5 -0 8 18 7 7 6 -6 4 11 0 0 7 4 0 4 7 4 5 9 6 2 6 7 4 5 2 5 7 4 4
7 7 8 8 6 8 7 6 16 27 26 17 13 11 9 10 13 13 12 14 16 14 12 10 8 6 6 6 5 9 10 7 7 2 -0 3 2 2 3 7 8 6 7 7 8 9 13 17 8 5 6 4 7 14 12 -4 3 24 10 4 11 10 15 -1 -4 23 8 -12 7 12 4 2 1 4 9 8 6 4 3 9 11 5 5 4 4 6 3 5
8 7 7 8 7 8 7 6 11 22 26 20 15 12 10 9 12 14 12 13 16 16 15 12 11 10 8 9 8 7 8 9 8 2 2 4 1 3 5 7 6 4 6 6 7 8 10 14 7 2 10 15 8 5 4 -12 -0 31 13 -4 3 4 9 3 4 12 -11 -7 18 10 3 6 1 2 11 10 1 5 9 9 12 9 8 6 3 4 2 1
8 6 6 8 8 8 7 7 8 16 25 23 16 12 11 10 13 14 11 14 16 16 16 10 10 13 9 10 10 8 6 7 8 4 4 3 -1 5 6 4 5 4 6 7 7 4 1 6 9 9 8 8 1 -2 9 2 3 22 1 -10 11 6 0 4 6 6 1 17 28 15 10 3 -5 -0 7 10 2 4 10 1 3 8 8 8 3 3 3 1
9 6 7 7 8 10 7 7 8 13 22 24 18 12 9 11 15 15 12 14 16 19 18 10 9 12 11 13 11 9 8 7 9 6 4 3 1 3 6 4 4 6 7 5 4 2 1 5 9 13 9 2 -2 -4 11 13 6 12 2 15 36 6 -6 9 8 9 9 12 12 6 10 8 9 17 13 8 3 6 12 4 4 7 6 8 6 4 6 3
11 8 6 6 9 10 8 8 7 11 19 23 20 14 10 11 14 15 14 13 16 19 16 11 11 9 10 15 9 7 10 9 9 8 4 4 2 2 5 5 2 5 7 4 5 4 7 9 7 14 11 2 5 6 17 19 4 1 -1 16 20 -22 -16 14 3 0 3 4 10 3 5 9 4 9 11 8 11 15 15 11 12 11 4 4 7 8 8 5
12 10 6 6 8 9 10 8 5 11 19 21 18 15 12 12 13 15 15 11 12 18 17 12 10 11 17 17 8 7 11 9 9 9 6 5 6 3 1 6 7 4 4 4 5 5 9 3 -2 16 10 -4 12 11 11 14 -5 1 12 15 12 -14 0 24 -3 -8 6 6 11 5 1 4 -8 -2 12 10 14 19 10 6 11 9 5 4 6 10 11 7
11 11 7 6 8 10 11 9 6 11 19 20 16 13 14 13 13 15 16 11 7 14 20 15 5 8 19 17 13 16 12 7 10 11 7 5 9 6 -1 6 10 6 5 7 6 4 12 2 -10 19 18 -2 13 9 10 20 -5 2 19 6 8 5 17 32 -0 -12 8 5 7 12 6 6 4 8 14 12 16 16 2 -1 9 11 12 13 8 9 12 9
10 12 9 6 8 11 12 10 8 10 17 19 12 12 14 13 14 13 15 16 8 6 14 17 11 7 13 13 14 22 16 6 10 14 6 2 8 6 1 3 3 2 -0 2 8 3 9 8 -7 17 29 9 15 13 11 18 -0 2 7 -12 -0 9 9 23 9 -2 10 7 9 14 5 7 8 1 6 16 17 15 9 6 5 5 16 20 6 1 7 13
8 12 10 7 8 12 13 11 9 10 17 16 10 13 12 12 14 8 13 18 10 9 9 13 17 8 6 10 9 19 21 8 11 16 5 2 8 4 1 3 3 5 -2 -1 16 6 -1 10 3 10 23 11 11 10 1 2 1 5 1 -6 6 4 -4 6 10 11 8 4 15 18 8 6 -1 -6 10 17 6 5 13 9 -6 -5 15 19 4 -1 3 8
8 10 11 9 7 14 16 12 10 9 15 14 10 13 10 11 14 9 17 16 10 22 18 17 30 18 7 10 5 12 19 11 12 14 6 4 8 5 6 6 2 6 4 5 17 3 -8 9 12 12 15 1 -4 1 3 4 4 2 -1 8 16 4 1 5 6 15 9 -2 10 15 12 13 12 12 15 12 5 1 12 28 30 22 17 11 4 2 2 1
7 7 11 8 6 16 16 14 13 8 14 13 9 13 10 12 14 11 21 12 4 27 21 18 37 28 18 18 8 9 12 13 20 15 10 12 9 5 7 5 1 6 7 10 13 -1 -8 0 6 20 20 1 -2 3 9 11 7 3 -6 0 14 6 2 1 -1 10 11 2 7 13 14 12 14 13 5 7 8 -2 6 26 29 14 -4 -7 2 6 6 7
6 6 10 7 8 17 15 15 14 7 14 11 7 13 8 12 15 12 23 5 -16 1 6 9 21 21 29 27 15 17 12 11 24 20 10 12 13 9 7 4 5 13 7 6 11 1 -1 4 2 20 20 -3 2 9 10 17 13 9 1 -10 -1 5 -3 -2 2 1 1 6 10 14 17 6 1 3 2 8 7 -2 1 -1 -8 -5 -6 -1 13 13 10 10
7 5 8 6 9 17 14 15 13 8 13 8 8 12 6 16 18 12 26 10 -16 -9 1 10 11 10 29 29 16 22 17 7 15 23 17 12 13 11 10 6 4 15 7 -4 9 3 1 15 8 16 18 -1 6 1 -9 15 15 7 20 6 -8 6 6 2 10 1 -7 7 10 4 8 4 3 13 13 12 11 2 -3 -4 1 10 7 5 12 10 7 9
8 4 7 5 9 18 14 12 12 10 11 7 9 10 8 18 16 13 19 6 5 12 4 13 12 -1 15 23 15 16 16 9 4 17 28 22 16 11 9 8 5 14 1 -16 6 2 -8 13 9 8 16 7 20 10 -17 10 18 2 26 25 -5 4 7 -4 6 5 -8 6 17 6 3 2 1 10 12 7 9 11 10 17 22 17 10 7 7 9 11 13
7 5 6 3 9 18 12 10 11 10 11 9 9 9 12 15 16 24 6 -16 16 20 -10 10 21 2 11 17 15 16 9 4 -3 5 23 25 23 17 10 9 9 16 5 -9 4 -2 -6 15 5 -1 10 7 28 30 -5 1 11 -5 11 25 9 2 1 -3 9 18 4 4 19 16 7 9 8 9 12 5 4 15 20 17 17 23 26 15 7 13 12 7
6 6 7 4 9 16 13 9 8 10 11 9 9 10 14 15 18 29 -1 -26 19 22 -15 8 20 12 27 14 5 21 11 -0 2 3 12 17 19 20 15 14 14 18 18 8 -1 -3 16 31 13 4 11 10 22 29 10 -2 2 -1 -7 5 19 10 2 8 11 14 7 -4 7 15 9 11 12 6 10 11 2 -2 -7 -13 -7 9 19 14 10 11 5 -1
6 6 8 7 9 14 16 9 5 10 10 8 12 9 12 17 18 31 10 -22 8 25 6 17 13 9 33 16 -2 16 10 3 13 8 7 14 14 17 19 17 20 22 19 6 -12 -5 17 15 8 12 12 14 10 8 17 7 3 17 -4 -15 16 13 -3 8 10 9 12 3 0 7 7 7 4 -3 -3 2 4 -2 -8 -4 0 -3 1 13 17 12 8 4
4 5 12 9 6 13 16 9 6 9 8 10 14 8 11 17 14 24 10 -23 -3 28 20 9 -6 -9 16 17 5 11 8 9 17 6 7 18 15 16 19 15 19 19 19 17 -3 -4 4 -8 -2 7 6 23 14 -7 19 20 2 22 12 -9 9 8 -6 5 12 11 13 11 4 -0 3 8 10 10 1 -5 4 10 10 15 14 5 10 21 17 14 19 13
-1 5 21 9 1 12 13 9 10 7 8 12 11 12 14 13 17 18 -5 -23 1 30 26 4 -12 -4 19 20 9 9 6 8 14 3 2 15 14 14 19 20 18 12 24 34 2 -16 -3 -1 12 14 -0 24 23 -9 15 31 6 9 12 -1 -3 -3 -1 2 1 5 7 8 6 -1 1 5 6 10 5 -0 4 5 4 6 -1 -6 8 22 17 8 12 14
-3 7 28 14 2 13 14 11 12 6 9 13 7 14 14 7 25 21 -14 -20 0 17 32 19 -8 1 25 21 7 9 8 4 9 9 2 5 12 11 11 22 26 12 18 27 -4 -18 -2 1 17 20 -2 14 25 -4 8 35 25 14 7 -6 -15 -7 9 6 -4 -3 2 6 5 -2 2 6 3 3 4 7 12 13 19 27 27 19 11 11 13 8 5 9
0 6 26 18 4 11 13 10 14 10 10 14 9 14 15 8 21 17 -12 -10 2 7 28 33 5 -9 10 23 5 -5 12 10 0 13 14 4 12 13 1 15 29 11 5 14 1 -5 2 -5 8 17 -2 6 18 1 5 20 15 15 13 -6 -11 -0 5 6 11 7 1 7 9 7 12 9 2 1 1 -0 3 11 14 17 28 31 14 8 13 11 11 13
4 8 25 21 4 7 13 9 14 13 7 12 9 9 20 19 15 11 -3 -6 3 3 9 32 34 -6 -16 24 14 -19 9 21 -6 15 33 6 7 19 1 6 26 13 -0 10 12 5 -4 -12 -1 8 1 7 11 4 8 7 -4 10 26 9 -2 8 1 -5 9 8 -4 0 3 1 4 1 -1 2 4 2 -3 0 4 -2 -4 -6 -5 8 13 5 9 15
5 10 25 24 9 7 11 7 12 12 5 8 7 6 16 14 9 18 15 -1 -1 1 -7 13 47 17 -24 8 22 -12 7 22 -14 4 43 16 0 19 10 3 21 22 8 4 8 9 0 -3 2 1 -0 2 -1 1 13 18 9 11 26 20 3 5 9 4 7 5 -4 -4 -5 -8 -7 -1 9 8 3 7 4 3 13 12 0 -9 -8 1 3 1 4 2
5 6 16 19 11 8 10 9 11 12 8 7 9 10 7 -4 1 22 31 21 5 -4 -13 -14 15 30 -2 -2 21 3 3 19 -17 -20 36 35 2 8 14 2 3 17 19 4 -1 5 4 11 16 6 5 5 -6 -1 12 18 16 5 9 22 13 4 11 9 6 8 5 1 0 2 4 8 17 15 10 18 18 13 25 32 20 9 2 -2 -1 3 3 -2
8 2 11 18 11 6 10 6 4 9 10 5 5 10 8 -0 -1 3 16 37 27 2 -4 -17 -14 24 20 6 29 15 -8 9 -14 -36 18 41 6 4 22 12 -2 13 24 6 3 19 4 -8 6 7 8 15 9 5 0 -7 5 8 1 12 17 13 13 5 -0 5 4 3 4 1 -1 -2 2 7 9 11 10 6 12 17 10 3 0 3 10 9 4 7
13 3 12 27 16 3 10 8 2 6 9 7 5 4 9 10 8 5 6 25 38 24 7 -14 -14 22 22 1 22 22 -6 1 -8 -28 6 27 5 7 22 11 -4 14 27 -5 -10 29 11 -24 6 25 5 4 16 15 -4 -19 0 16 4 3 11 10 7 3 6 12 8 8 11 4 -0 2 1 0 -2 -4 -0 -2 -13 -25 -20 -3 4 3 5 4 -1 2
17 4 8 30 19 -0 12 17 8 7 7 9 9 3 8 10 10 23 15 -2 23 43 20 -8 -5 20 19 -5 4 18 9 10 6 -6 5 10 -2 5 20 12 -7 1 24 1 -19 14 11 -23 1 26 5 -4 12 23 13 -6 -1 11 4 2 8 8 9 8 7 12 9 6 7 4 5 10 10 12 12 6 2 4 2 -3 1 10 7 -1 3 10 7 2
17 6 3 26 23 -1 7 17 7 5 5 6 9 2 7 12 5 15 11 -11 11 37 21 14 17 10 7 0 -1 10 16 16 11 -1 -0 -1 -10 -4 18 30 17 2 15 20 2 6 15 -2 -14 -9 1 5 1 10 23 7 -6 2 3 2 8 10 12 13 10 10 10 6 6 4 2 6 13 20 22 16 9 8 10 10 9 4 -4 -5 2 4 1 -1
17 13 3 22 31 5 0 14 10 7 4 3 10 4 1 10 9 8 5 -8 7 21 7 13 24 6 1 8 3 6 14 19 16 4 1 4 -7 -15 -10 7 21 12 6 20 17 2 10 23 9 -8 -1 8 -6 -9 10 9 -1 6 9 5 10 11 5 5 8 8 6 8 13 11 1 -2 -1 -1 -3 -0 4 4 0 1 7 9 1 -4 -3 -3 -3 4
Height
5899 5899 5900 5901 5902 5903 5904 5905 5906 5907 5908 5909 5910 5910 5911 5911 5911 5912 5912 5913 5913 5913 5914 5914 5914 5914 5915 5915 5914 5914 5914 5914 5914 5915 5915 5914 5915 5915 5916 5916 5917 5917 5918 5918 5919 5920 5921 5922 5923 5922 5923 5924 5925 5926 5926 5926 5928 5928 5928 5934 5939 5937 5934 5932 5929 5928 5926 5926 5927 5927 5928 5928 5927 5927 5928 5928 5928 5927 5927 5927 5927 5927 5927 5927 5926 5926 5925 5926
5897 5897 5898 5899 5900 5901 5902 5903 5904 5905 5906 5907 5908 5909 5910 5910 5911 5911 5912 5912 5913 5913 5913 5914 5914 5914 5915 5915 5915 5914 5914 5914 5914 5914 5914 5914 5915 5915 5916 5916 5917 5917 5918 5918 5919 5920 5921 5921 5922 5923 5925 5926 5926 5927 5928 5930 5931 5930 5931 5937 5940 5936 5933 5932 5930 5929 5928 5927 5927 5929 5928 5928 5928 5928 5929 5928 5928 5928 5928 5928 5928 5928 5928 5928 5927 5927 5926 5927
5895 5895 5896 5897 5897 5898 5900 5901 5902 5903 5904 5905 5907 5908 5909 5909 5910 5910 5911 5912 5912 5913 5913 5913 5914 5914 5914 5914 5915 5914 5914 5914 5914 5914 5914 5914 5914 5915 5916 5916 5917 5917 5917 5918 5918 5919 5920 5920 5920 5922 5925 5926 5927 5930 5932 5932 5932 5934 5937 5940 5940 5935 5932 5931 5930 5930 5929 5928 5927 5929 5928 5927 5929 5928 5929 5929 5928 5928 5928 5929 5929 5929 5929 5928 5927 5928 5927 5928
5893 5893 5894 5894 5895 5896 5897 5898 5900 5901 5902 5903 5905 5906 5907 5908 5909 5910 5910 5911 5911 5912 5913 5913 5913 5914 5914 5914 5914 5914 5914 5914 5914 5914 5914 5914 5914 5915 5915 5916 5917 5917 5918 5918 5918 5919 5919 5921 5920 5922 5925 5925 5930 5934 5934 5935 5933 5937 5940 5940 5939 5935 5932 5931 5930 5930 5929 5929 5928 5929 5928 5928 5929 5929 5930 5929 5928 5929 5929 5929 5930 5930 5930 5929 5928 5928 5928 5928
5890 5891 5892 5892 5893 5894 5895 5896 5897 5898 5900 5901 5902 5904 5905 5907 5907 5908 5909 5910 5911 5912 5912 5913 5913 5913 5914 5914 5914 5914 5915 5915 5914 5914 5914 5914 5914 5914 5915 5916 5917 5917 5918 5918 5919 5920 5920 5923 5922 5923 5926 5926 5933 5936 5935 5937 5935 5937 5939 5938 5938 5935 5932 5931 5930 5930 5929 5930 5930 5929 5928 5929 5930 5929 5930 5930 5928 5930 5930 5930 5930 5930 5930 5929 5928 5929 5929 5929
5888 5888 5889 5890 5890 5891 5892 5893 5894 5896 5897 5898 5900 5901 5903 5905 5906 5907 5908 5909 5910 5911 5911 5912 5913 5913 5913 5914 5914 5914 5915 5915 5915 5914 5914 5914 5914 5914 5915 5916 5917 5917 5918 5918 5919 5921 5921 5924 5923 5924 5927 5929 5935 5937 5938 5940 5936 5938 5939 5936 5936 5934 5932 5931 5930 5930 5930 5930 5930 5930 5929 5929 5930 5929 5929 5929 5928 5930 5930 5930 5930 5930 5930 5929 5929 5930 5930 5930
5885 5885 5886 5887 5888 5889 5889 5890 5892 5893 5894 5896 5897 5899 5901 5902 5904 5905 5907 5908 5909 5909 5910 5911 5912 5912 5913 5913 5914 5914 5915 5915 5915 5915 5914 5914 5914 5914 5915 5916 5917 5917 5918 5919 5919 5921 5922 5923 5923 5923 5926 5932 5937 5937 5939 5941 5937 5937 5937 5936 5936 5934 5932 5931 5931 5931 5930 5931 5931 5931 5930 5929 5930 5929 5929 5929 5929 5929 5930 5929 5929 5930 5930 5929 5929 5930 5930 5930
5882 5882 5883 5884 5885 5886 5887 5888 5888 5890 5891 5893 5894 5896 5898 5900 5901 5903 5905 5906 5907 5908 5909 5910 5911 5912 5912 5913 5914 5914 5914 5915 5915 5915 5914 5914 5914 5914 5915 5916 5917 5918 5918 5919 5919 5921 5922 5923 5924 5924 5928 5935 5940 5939 5937 5939 5939 5937 5936 5935 5935 5933 5932 5931 5931 5931 5931 5931 5931 5931 5930 5928 5929 5929 5930 5929 5929 5929 5928 5928 5929 5930 5929 5929 5930 5930 5930 5930
5878 5879 5880 5881 5882 5883 5884 5885 5886 5887 5888 5890 5892 5893 5895 5897 5899 5901 5903 5905 5905 5906 5907 5908 5910 5910 5912 5912 5913 5914 5914 5915 5915 5915 5914 5915 5915 5914 5915 5915 5917 5918 5918 5919 5919 5921 5922 5924 5925 5925 5931 5936 5940 5939 5936 5937 5939 5937 5935 5934 5933 5933 5933 5932 5931 5932 5931 5931 5931 5931 5930 5929 5929 5929 5930 5930 5929 5929 5928 5929 5929 5930 5930 5930 5931 5931 5931 5930
5875 5876 5877 5878 5879 5880 5880 5882 5883 5884 5885 5886 5888 5890 5892 5894 5896 5898 5900 5902 5903 5905 5906 5907 5908 5909 5910 5911 5912 5913 5913 5914 5914 5915 5915 5915 5915 5915 5915 5915 5916 5917 5918 5919 5920 5921 5922 5923 5925 5925 5930 5934 5936 5938 5936 5937 5937 5934 5935 5934 5933 5934 5934 5933 5932 5932 5932 5931 5931 5931 5930 5930 5929 5929 5930 5930 5930 5929 5928 5929 5929 5929 5930 5931 5931 5931 5931 5931
5873 5873 5873 5874 5876 5876 5877 5878 5879 5881 5882 5883 5885 5887 5889 5890 5893 5895 5897 5899 5901 5902 5903 5905 5906 5907 5909 5910 5912 5913 5913 5914 5914 5914 5915 5914 5915 5915 5915 5915 5916 5917 5918 5919 5920 5921 5921 5921 5923 5925 5930 5932 5934 5937 5936 5936 5936 5933 5934 5934 5933 5934 5935 5935 5933 5932 5932 5931 5931 5931 5930 5930 5930 5931 5931 5931 5931 5931 5929 5929 5929 5929 5930 5931 5931 5931 5932 5931
5871 5870 5870 5871 5872 5873 5874 5875 5876 5877 5879 5880 5882 5883 5885 5887 5889 5892 5894 5897 5898 5900 5901 5903 5904 5906 5907 5909 5911 5912 5912 5913 5913 5914 5914 5914 5914 5914 5915 5915 5916 5917 5918 5919 5920 5920 5921 5922 5923 5924 5930 5933 5936 5938 5935 5936 5936 5934 5934 5934 5934 5934 5935 5935 5933 5933 5932 5932 5931 5931 5931 5931 5931 5932 5932 5932 5932 5932 5931 5930 5931 5930 5930 5931 5931 5931 5931 5931
5868 5868 5867 5867 5868 5869 5870 5871 5872 5873 5875 5876 5878 5880 5881 5883 5886 5888 5891 5893 5895 5897 5898 5900 5902 5904 5905 5907 5909 5910 5910 5911 5912 5913 5914 5914 5914 5914 5915 5915 5916 5917 5918 5918 5918 5920 5922 5923 5922 5922 5927 5931 5936 5937 5935 5936 5936 5933 5934 5934 5934 5935 5936 5935 5934 5934 5933 5932 5932 5931 5932 5932 5932 5932 5933 5933 5933 5934 5932 5930 5931 5930 5930 5932 5932 5931 5931 5930
5866 5865 5865 5864 5864 5865 5866 5867 5869 5870 5871 5872 5874 5877 5878 5880 5882 5884 5887 5890 5892 5894 5895 5898 5899 5902 5903 5905 5907 5908 5909 5910 5911 5912 5913 5913 5913 5913 5914 5915 5915 5916 5917 5917 5918 5920 5921 5922 5922 5922 5924 5927 5933 5935 5934 5935 5934 5933 5934 5934 5935 5936 5936 5935 5934 5934 5933 5933 5933 5932 5932 5932 5932 5933 5934 5934 5934 5934 5933 5932 5931 5931 5931 5932 5932 5931 5931 5930
5864 5863 5862 5862 5861 5861 5862 5863 5864 5866 5867 5869 5870 5872 5874 5876 5878 5880 5883 5886 5889 5891 5893 5895 5897 5899 5900 5903 5905 5906 5907 5909 5910 5911 5912 5912 5912 5913 5913 5914 5915 5916 5916 5917 5918 5919 5920 5921 5922 5924 5923 5925 5931 5933 5933 5935 5934 5933 5934 5934 5936 5936 5935 5935 5935 5934 5934 5934 5933 5933 5932 5932 5932 5933 5934 5934 5934 5935 5934 5933 5932 5931 5931 5932 5932 5932 5931 5931
5861 5861 5860 5859 5859 5858 5859 5859 5860 5862 5864 5865 5867 5868 5870 5872 5874 5876 5879 5883 5885 5887 5889 5892 5894 5896 5898 5901 5903 5903 5905 5907 5908 5909 5910 5911 5911 5912 5912 5913 5915 5915 5916 5917 5918 5919 5919 5921 5921 5922 5922 5923 5927 5931 5934 5936 5935 5933 5933 5934 5935 5935 5935 5935 5935 5934 5934 5934 5933 5933 5932 5932 5932 5933 5933 5934 5934 5934 5934 5933 5932 5931 5931 5932 5933 5932 5931 5931
5859 5858 5857 5856 5856 5855 5856 5856 5856 5858 5859 5861 5863 5864 5866 5868 5870 5873 5875 5878 5881 5884 5886 5888 5891 5893 5896 5898 5899 5900 5903 5905 5906 5908 5909 5910 5910 5911 5911 5912 5913 5915 5916 5917 5918 5918 5919 5920 5921 5920 5921 5923 5924 5929 5934 5936 5934 5933 5933 5934 5934 5934 5935 5935 5935 5935 5934 5934 5933 5932 5932 5932 5932 5932 5933 5933 5934 5934 5934 5933 5933 5932 5931 5931 5933 5932 5931 5931
5856 5856 5855 5854 5853 5853 5852 5852 5853 5854 5855 5857 5859 5861 5862 5863 5866 5869 5871 5874 5878 5880 5883 5885 5888 5890 5892 5894 5895 5897 5900 5902 5905 5906 5907 5908 5909 5909 5910 5911 5912 5914 5915 5916 5917 5918 5918 5919 5920 5920 5921 5922 5923 5926 5932 5934 5935 5935 5934 5934 5934 5935 5934 5934 5935 5935 5934 5934 5933 5932 5932 5932 5932 5932 5932 5932 5933 5933 5933 5933 5933 5932 5931 5930 5931 5931 5930 5932
5854 5853 5852 5852 5851 5850 5850 5849 5850 5850 5852 5853 5855 5857 5859 5860 5861 5864 5867 5871 5874 5876 5878 5881 5884 5886 5889 5892 5894 5896 5898 5900 5902 5904 5905 5906 5907 5908 5909 5909 5911 5912 5913 5914 5916 5917 5917 5918 5918 5919 5919 5921 5922 5925 5931 5937 5937 5935 5935 5935 5935 5935 5935 5934 5935 5935 5934 5934 5932 5932 5932 5931 5932 5931 5932 5932 5932 5933 5933 5933 5933 5932 5931 5931 5931 5931 5931 5932
5851 5850 5850 5849 5848 5848 5847 5847 5846 5847 5849 5850 5852 5854 5855 5857 5857 5858 5863 5867 5870 5872 5874 5878 5880 5883 5887 5889 5890 5892 5894 5897 5899 5901 5903 5904 5905 5906 5907 5908 5909 5910 5912 5913 5914 5915 5915 5916 5917 5918 5919 5921 5923 5924 5930 5938 5939 5937 5938 5939 5937 5938 5938 5936 5935 5934 5935 5934 5932 5930 5931 5931 5931 5931 5931 5932 5931 5931 5932 5932 5932 5932 5931 5931 5931 5931 5931 5932
5848 5848 5847 5847 5846 5845 5844 5844 5843 5844 5845 5846 5848 5850 5851 5853 5854 5855 5859 5862 5864 5868 5871 5874 5877 5879 5881 5884 5886 5889 5892 5895 5896 5898 5900 5902 5903 5904 5905 5906 5907 5909 5910 5911 5913 5913 5914 5915 5917 5918 5919 5920 5923 5924 5928 5936 5939 5939 5941 5942 5940 5940 5940 5939 5936 5934 5934 5935 5932 5929 5929 5930 5930 5931 5930 5931 5931 5930 5930 5931 5931 5932 5931 5931 5931 5931 5931 5932
5845 5845 5844 5844 5844 5843 5842 5841 5841 5841 5842 5843 5844 5846 5848 5850 5851 5853 5856 5857 5860 5864 5867 5870 5873 5876 5878 5881 5884 5886 5890 5892 5893 5896 5898 5899 5901 5902 5903 5905 5906 5908 5909 5910 5910 5911 5912 5914 5916 5917 5919 5920 5923 5924 5927 5935 5939 5940 5941 5942 5941 5941 5941 5939 5936 5935 5934 5934 5933 5929 5928 5928 5929 5930 5930 5930 5930 5930 5930 5930 5930 5930 5931 5930 5930 5930 5930 5931
5842 5842 5842 5842 5841 5840 5839 5839 5839 5839 5839 5839 5841 5842 5845 5846 5848 5850 5852 5854 5856 5860 5863 5866 5869 5872 5875 5878 5880 5884 5888 5888 5890 5893 5895 5897 5899 5900 5901 5903 5905 5906 5907 5908 5909 5910 5912 5914 5915 5916 5918 5920 5923 5923 5925 5932 5936 5936 5937 5940 5940 5940 5941 5938 5935 5935 5934 5934 5933 5929 5928 5927 5927 5929 5929 5929 5929 5929 5929 5929 5929 5929 5930 5930 5930 5929 5929 5929
5839 5839 5839 5839 5838 5838 5837 5837 5837 5836 5835 5836 5838 5840 5841 5843 5845 5846 5849 5851 5853 5856 5860 5863 5865 5868 5872 5875 5877 5882 5885 5885 5888 5890 5892 5895 5896 5897 5899 5901 5903 5904 5905 5907 5908 5910 5912 5914 5914 5916 5917 5918 5922 5924 5923 5927 5931 5930 5931 5936 5939 5940 5940 5937 5933 5933 5933 5933 5932 5929 5927 5926 5926 5928 5929 5928 5928 5928 5928 5928 5927 5928 5928 5929 5929 5929 5928 5928
5836 5836 5835 5835 5836 5835 5834 5835 5834 5833 5832 5833 5835 5837 5838 5841 5842 5843 5846 5848 5851 5855 5857 5859 5862 5866 5869 5871 5875 5879 5880 5883 5886 5887 5890 5893 5893 5895 5897 5898 5900 5902 5903 5905 5907 5909 5911 5912 5912 5914 5916 5917 5920 5925 5925 5926 5928 5929 5928 5931 5937 5942 5942 5938 5934 5932 5931 5932 5932 5929 5927 5924 5925 5928 5928 5927 5927 5926 5926 5926 5926 5927 5927 5928 5928 5928 5928 5927
5832 5832 5832 5832 5832 5832 5831 5832 5832 5830 5829 5831 5832 5834 5836 5838 5838 5840 5843 5846 5850 5852 5853 5856 5860 5863 5867 5869 5872 5875 5876 5880 5883 5885 5888 5889 5890 5893 5894 5896 5898 5900 5902 5904 5905 5907 5908 5911 5911 5912 5915 5916 5918 5922 5924 5924 5925 5928 5929 5929 5932 5937 5940 5939 5938 5934 5931 5931 5931 5930 5928 5925 5923 5926 5926 5925 5925 5924 5924 5924 5925 5926 5926 5926 5926 5927 5927 5927
5829 5829 5829 5828 5829 5829 5828 5829 5830 5828 5827 5829 5829 5830 5833 5834 5836 5838 5841 5844 5848 5849 5850 5853 5856 5860 5863 5865 5868 5872 5874 5877 5880 5882 5885 5886 5887 5890 5891 5894 5896 5897 5899 5901 5902 5904 5907 5908 5909 5911 5912 5915 5918 5919 5920 5921 5923 5927 5931 5931 5929 5932 5938 5940 5938 5935 5932 5932 5932 5931 5930 5926 5922 5923 5924 5923 5923 5923 5922 5923 5924 5924 5924 5925 5925 5925 5926 5926
5825 5825 5826 5825 5825 5826 5825 5825 5827 5825 5824 5826 5826 5827 5830 5831 5833 5836 5838 5842 5845 5845 5848 5851 5854 5857 5858 5859 5863 5868 5871 5874 5877 5879 5883 5885 5885 5887 5889 5891 5894 5896 5897 5899 5900 5903 5905 5906 5908 5909 5910 5913 5916 5917 5918 5919 5922 5925 5928 5929 5928 5930 5936 5939 5936 5934 5932 5931 5931 5929 5928 5927 5923 5920 5921 5921 5921 5921 5922 5922 5922 5923 5923 5924 5924 5923 5924 5924
5821 5821 5822 5821 5821 5823 5822 5821 5823 5822 5822 5823 5824 5825 5827 5829 5831 5833 5836 5839 5841 5843 5846 5849 5852 5853 5853 5855 5862 5866 5867 5870 5873 5876 5880 5882 5882 5884 5886 5888 5891 5894 5895 5896 5899 5902 5903 5905 5907 5908 5909 5912 5914 5914 5916 5918 5920 5923 5924 5925 5928 5929 5930 5932 5931 5932 5931 5928 5928 5928 5925 5924 5922 5919 5917 5919 5920 5920 5920 5920 5920 5921 5921 5921 5922 5922 5921 5922
5817 5817 5819 5818 5817 5819 5819 5818 5819 5820 5820 5820 5821 5822 5824 5826 5828 5830 5832 5836 5841 5842 5843 5847 5850 5850 5850 5854 5861 5863 5864 5867 5869 5871 5875 5877 5879 5881 5883 5886 5889 5891 5893 5895 5896 5899 5902 5903 5905 5906 5907 5910 5911 5912 5915 5917 5919 5922 5923 5925 5929 5928 5925 5925 5926 5927 5927 5925 5924 5926 5925 5922 5921 5918 5914 5915 5918 5918 5917 5917 5918 5918 5919 5919 5920 5919 5919 5919
5812 5813 5815 5815 5814 5815 5815 5814 5815 5817 5816 5817 5818 5819 5821 5823 5825 5827 5829 5834 5840 5839 5840 5845 5847 5846 5849 5852 5857 5859 5860 5864 5865 5866 5870 5873 5875 5878 5879 5881 5884 5886 5889 5892 5894 5897 5900 5901 5901 5903 5905 5907 5909 5912 5913 5916 5918 5918 5920 5923 5926 5925 5922 5923 5924 5923 5923 5923 5922 5924 5925 5923 5919 5917 5915 5911 5911 5914 5915 5915 5915 5914 5916 5918 5918 5918 5917 5917
5808 5810 5811 5811 5811 5811 5811 5811 5812 5813 5813 5814 5815 5816 5818 5819 5821 5824 5828 5834 5839 5838 5840 5844 5843 5845 5849 5850 5854 5856 5857 5861 5862 5862 5867 5870 5871 5874 5876 5879 5882 5884 5887 5890 5893 5895 5899 5901 5900 5901 5903 5904 5908 5912 5913 5916 5918 5916 5918 5921 5922 5923 5922 5921 5922 5921 5921 5921 5922 5922 5923 5922 5918 5917 5917 5913 5908 5909 5910 5911 5912 5912 5913 5915 5916 5916 5916 5915
5805 5806 5807 5808 5807 5807 5807 5808 5809 5809 5810 5811 5811 5812 5814 5815 5817 5823 5828 5833 5838 5838 5841 5843 5841 5844 5848 5848 5852 5853 5855 5858 5859 5860 5865 5868 5870 5872 5876 5878 5881 5884 5886 5889 5892 5893 5897 5899 5897 5898 5901 5902 5906 5911 5912 5913 5915 5914 5915 5917 5919 5921 5921 5920 5919 5920 5920 5920 5920 5921 5921 5921 5919 5916 5917 5915 5909 5907 5907 5906 5907 5909 5910 5912 5913 5914 5914 5913
5801 5802 5803 5804 5804 5803 5803 5805 5805 5806 5807 5807 5808 5809 5810 5811 5816 5822 5826 5831 5836 5840 5844 5843 5841 5842 5844 5847 5850 5850 5853 5856 5856 5859 5862 5865 5867 5869 5873 5875 5877 5881 5884 5887 5890 5890 5892 5894 5893 5896 5900 5900 5902 5907 5911 5911 5910 5911 5912 5914 5917 5919 5918 5918 5919 5919 5920 5920 5920 5920 5920 5919 5918 5916 5916 5915 5909 5906 5906 5904 5903 5906 5908 5909 5910 5911 5911 5911
5797 5799 5799 5800 5800 5799 5800 5801 5802 5802 5803 5804 5804 5805 5806 5809 5815 5820 5824 5828 5834 5840 5844 5843 5841 5840 5841 5845 5848 5848 5853 5856 5854 5855 5858 5861 5864 5866 5869 5872 5875 5880 5882 5884 5888 5889 5890 5892 5893 5896 5899 5898 5899 5904 5909 5910 5908 5909 5910 5911 5915 5918 5917 5917 5918 5918 5919 5919 5919 5919 5918 5917 5916 5915 5914 5913 5910 5908 5907 5905 5904 5906 5907 5907 5908 5908 5908 5908
5793 5794 5796 5797 5796 5796 5796 5797 5798 5799 5800 5801 5800 5801 5803 5808 5814 5819 5823 5828 5832 5837 5840 5841 5842 5842 5841 5843 5845 5847 5851 5854 5853 5853 5855 5858 5861 5864 5867 5870 5874 5877 5880 5883 5886 5888 5891 5893 5892 5894 5896 5896 5897 5902 5905 5905 5907 5908 5907 5908 5912 5916 5918 5917 5917 5917 5916 5917 5917 5916 5916 5915 5913 5913 5911 5910 5909 5908 5908 5908 5905 5904 5906 5907 5905 5906 5907 5906
5788 5790 5792 5792 5792 5792 5793 5794 5795 5795 5797 5797 5796 5798 5802 5807 5812 5816 5820 5826 5830 5832 5836 5839 5840 5841 5842 5842 5843 5846 5849 5852 5852 5850 5854 5856 5857 5862 5864 5867 5872 5875 5877 5881 5885 5887 5891 5894 5892 5890 5894 5895 5896 5900 5901 5901 5905 5907 5905 5906 5909 5912 5915 5916 5916 5914 5914 5915 5915 5915 5916 5915 5913 5912 5909 5906 5906 5905 5904 5905 5905 5902 5903 5905 5903 5902 5905 5905
5784 5786 5787 5788 5789 5789 5789 5790 5791 5792 5793 5793 5794 5797 5801 5804 5809 5813 5816 5821 5828 5830 5832 5836 5837 5839 5842 5842 5843 5845 5847 5850 5850 5849 5852 5853 5855 5859 5862 5865 5869 5873 5875 5879 5885 5888 5890 5894 5893 5888 5891 5895 5894 5896 5898 5898 5901 5903 5904 5906 5907 5908 5911 5911 5910 5910 5912 5913 5913 5913 5914 5913 5912 5910 5907 5905 5905 5905 5902 5900 5902 5901 5900 5902 5901 5900 5902 5903
5780 5781 5782 5784 5785 5785 5785 5787 5788 5789 5789 5790 5792 5796 5799 5802 5806 5810 5812 5814 5821 5825 5826 5830 5834 5836 5839 5842 5844 5846 5845 5847 5849 5849 5851 5853 5854 5857 5860 5863 5866 5871 5874 5876 5882 5887 5887 5891 5893 5887 5888 5892 5891 5892 5894 5895 5896 5899 5901 5904 5904 5905 5908 5909 5908 5908 5910 5911 5911 5911 5912 5911 5910 5908 5905 5903 5904 5905 5902 5899 5900 5902 5900 5899 5899 5899 5899 5899
5775 5776 5777 5780 5781 5781 5781 5783 5784 5785 5786 5788 5791 5794 5797 5800 5804 5807 5809 5810 5815 5818 5820 5824 5829 5833 5836 5840 5844 5846 5845 5846 5849 5850 5850 5852 5854 5856 5858 5861 5864 5868 5872 5873 5877 5883 5884 5887 5889 5887 5887 5890 5889 5888 5892 5894 5896 5896 5897 5898 5899 5901 5905 5908 5907 5906 5907 5908 5908 5910 5910 5908 5906 5906 5903 5900 5901 5903 5903 5900 5899 5900 5901 5898 5896 5896 5897 5896
5770 5771 5772 5775 5777 5776 5778 5779 5780 5782 5784 5786 5789 5791 5793 5796 5799 5803 5805 5807 5811 5814 5817 5820 5824 5827 5832 5837 5842 5846 5846 5845 5847 5850 5850 5850 5852 5855 5856 5859 5862 5865 5869 5871 5872 5877 5882 5886 5887 5884 5884 5888 5888 5887 5890 5893 5895 5896 5895 5894 5897 5900 5903 5906 5905 5905 5905 5905 5906 5907 5908 5905 5902 5903 5901 5898 5899 5900 5899 5897 5895 5896 5899 5897 5894 5894 5895 5895
5765 5765 5766 5770 5772 5772 5774 5775 5777 5779 5781 5784 5786 5788 5790 5792 5795 5798 5801 5804 5808 5811 5815 5817 5817 5819 5822 5828 5835 5842 5846 5845 5845 5847 5850 5850 5851 5854 5855 5857 5860 5864 5866 5869 5870 5873 5878 5883 5885 5883 5881 5885 5888 5886 5887 5890 5893 5895 5894 5894 5896 5898 5901 5903 5904 5904 5903 5903 5904 5905 5906 5902 5898 5899 5899 5896 5897 5898 5894 5892 5892 5893 5894 5895 5894 5893 5893 5893
5759 5760 5762 5766 5768 5768 5770 5772 5774 5776 5778 5781 5783 5784 5786 5788 5791 5794 5797 5802 5805 5808 5811 5813 5815 5816 5818 5822 5828 5835 5843 5846 5844 5844 5848 5850 5851 5853 5855 5856 5858 5861 5864 5867 5869 5871 5874 5876 5879 5882 5882 5884 5886 5885 5885 5885 5888 5890 5891 5892 5893 5895 5897 5900 5902 5903 5901 5902 5903 5903 5903 5901 5895 5895 5895 5893 5894 5896 5893 5891 5890 5891 5890 5890 5892 5892 5891 5891
5755 5756 5757 5761 5764 5764 5766 5768 5771 5773 5775 5778 5779 5780 5782 5784 5788 5791 5794 5797 5800 5804 5807 5809 5811 5814 5817 5820 5822 5827 5835 5841 5843 5844 5845 5848 5851 5852 5854 5854 5856 5860 5863 5864 5867 5868 5871 5872 5874 5878 5881 5882 5883 5884 5884 5883 5883 5886 5889 5891 5891 5892 5893 5896 5898 5900 5898 5899 5901 5900 5901 5900 5893 5890 5891 5891 5891 5893 5892 5890 5888 5887 5887 5887 5888 5888 5889 5889
5750 5751 5752 5756 5758 5760 5761 5765 5768 5770 5771 5773 5774 5777 5779 5781 5784 5788 5789 5791 5794 5797 5802 5805 5809 5812 5815 5818 5819 5820 5824 5830 5836 5841 5843 5846 5849 5851 5853 5853 5854 5859 5861 5862 5865 5867 5869 5871 5872 5873 5876 5878 5879 5880 5883 5883 5882 5883 5887 5889 5891 5892 5893 5893 5895 5895 5894 5896 5897 5897 5899 5896 5890 5888 5889 5889 5888 5889 5890 5890 5887 5885 5884 5885 5886 5886 5885 5886
5745 5746 5747 5750 5753 5754 5757 5761 5763 5765 5766 5768 5769 5772 5775 5778 5781 5783 5783 5786 5789 5792 5795 5801 5807 5810 5812 5816 5818 5817 5818 5822 5827 5834 5839 5843 5847 5849 5851 5852 5852 5855 5857 5857 5859 5863 5866 5868 5869 5870 5872 5875 5878 5879 5880 5882 5882 5882 5883 5885 5888 5891 5893 5893 5893 5892 5892 5892 5892 5892 5894 5892 5888 5888 5889 5888 5887 5885 5886 5887 5886 5884 5882 5883 5884 5884 5883 5884
5740 5740 5741 5744 5747 5749 5753 5756 5759 5761 5762 5764 5767 5768 5770 5773 5779 5781 5780 5780 5785 5788 5789 5794 5801 5806 5808 5812 5814 5814 5816 5819 5822 5828 5833 5838 5844 5847 5848 5850 5850 5849 5850 5853 5855 5858 5861 5862 5865 5868 5869 5870 5874 5877 5877 5879 5880 5881 5881 5883 5884 5885 5887 5889 5890 5891 5890 5889 5888 5889 5890 5889 5886 5885 5886 5885 5884 5882 5881 5881 5881 5882 5882 5881 5881 5881 5880 5880
5734 5734 5736 5740 5742 5743 5747 5751 5754 5756 5758 5761 5762 5764 5766 5768 5772 5775 5776 5777 5780 5784 5786 5789 5794 5800 5804 5808 5811 5813 5815 5817 5819 5824 5829 5833 5839 5843 5844 5846 5846 5843 5845 5850 5852 5853 5856 5859 5862 5865 5867 5867 5868 5870 5872 5875 5878 5879 5879 5881 5882 5881 5882 5883 5885 5887 5888 5887 5886 5886 5885 5885 5884 5883 5883 5882 5881 5881 5879 5876 5876 5878 5879 5879 5878 5878 5877 5876
5729 5730 5732 5737 5740 5740 5742 5746 5748 5750 5754 5756 5757 5759 5762 5764 5765 5768 5772 5775 5776 5779 5783 5785 5788 5792 5797 5802 5807 5810 5811 5813 5814 5817 5821 5826 5831 5834 5836 5840 5841 5840 5842 5845 5846 5848 5852 5855 5857 5860 5863 5865 5866 5867 5869 5871 5874 5875 5876 5878 5880 5881 5880 5880 5881 5883 5884 5884 5884 5883 5882 5882 5882 5881 5881 5878 5877 5878 5875 5873 5874 5875 5875 5876 5876 5876 5876 5875
5724 5726 5727 5731 5734 5736 5740 5743 5744 5747 5750 5752 5753 5754 5756 5759 5762 5764 5768 5772 5774 5775 5778 5781 5785 5790 5795 5800 5804 5805 5804 5806 5808 5809 5813 5819 5822 5824 5828 5833 5836 5838 5838 5840 5842 5845 5847 5850 5853 5856 5858 5861 5863 5865 5865 5866 5868 5871 5873 5874 5877 5879 5879 5879 5878 5880 5881 5882 5882 5881 5879 5878 5877 5877 5877 5874 5872 5871 5870 5870 5872 5872 5872 5873 5874 5873 5873 5872
5718 5720 5722 5725 5728 5731 5734 5737 5739 5743 5745 5747 5748 5751 5753 5756 5759 5761 5764 5767 5770 5772 5773 5777 5782 5787 5791 5794 5797 5797 5796 5799 5803 5805 5809 5813 5816 5818 5822 5824 5830 5835 5836 5836 5840 5842 5843 5846 5849 5851 5852 5855 5858 5860 5863 5865 5866 5867 5869 5872 5874 5875 5876 5877 5877 5877 5877 5878 5878 5877 5876 5875 5872 5870 5869 5868 5868 5867 5865 5866 5869 5870 5869 5870 5870 5870 5870 5869
5712 5715 5716 5719 5724 5727 5729 5732 5735 5738 5741 5744 5745 5747 5750 5753 5755 5757 5759 5760 5763 5766 5769 5772 5776 5780 5782 5784 5787 5788 5789 5794 5801 5804 5806 5809 5813 5816 5817 5817 5823 5831 5832 5832 5835 5837 5839 5842 5845 5847 5847 5849 5853 5858 5862 5863 5863 5862 5865 5869 5871 5872 5874 5874 5875 5875 5874 5873 5872 5870 5871 5871 5867 5863 5862 5862 5863 5862 5861 5862 5864 5866 5866 5865 5865 5866 5866 5866